Weather History for Volk, WI

Change the Weather History Date:

Tuesday, January 8, 2013

  Actual Average Record
Temperature  
Mean Temperature 24 °F -  
Max Temperature 39 °F 23 °F - (-1)
Min Temperature 8 °F 12 °F - (-1)
Degree Days  
Heating Degree Days 42    
Moisture  
Dew Point 13 °F    
Average Humidity 88    
Maximum Humidity 100    
Minimum Humidity 65    
Precipitation  
Precipitation 0.00 in - - ()
Snow  
Snow 0.00 in - - ()
Snow Depth 8.00 in    
Sea Level Pressure  
Sea Level Pressure 30.03 in    
Wind  
Wind Speed 2 mph (SE)    
Max Wind Speed 16 mph    
Max Gust Speed 24 mph    
Visibility 3 miles    
Events Fog    
Averages and records for this station are not official NWS values.
T = Trace of Precipitation, MM = Missing Value Source: NWS Daily Summary

Daily Weather History Graph

Daily Weather History Graph

Search for Another Location

Airport:

Trip Planner

Search our weather history database for the weather conditions in past years. The results will help you decide how hot, cold, wet, or windy it might be!

Date:

Astronomy

Jan. 08, 2013 Rise Set
Actual Time 7:34 AM CST 4:41 PM CST
Civil Twilight 7:02 AM CST 5:13 PM CST
Nautical Twilight 6:26 AM CST 5:49 PM CST
Astronomical Twilight 5:51 AM CST 6:24 PM CST
Moon 4:07 AM CST (1/8) 1:43 PM CST (1/8)
Length of Visible Light 10h 11m
Length of Day
9h 06m
Waning Crescent, 13% of the Moon is Illuminated
Jan 8
Waning Crescent
Jan 11
New
Jan 18
First Quarter
Jan 26
Full
Feb 3
Last Quarter

Hourly Weather History & Observations

Time (CST) Temp. Windchill Dew Point Humidity Pressure Visibility Wind Dir Wind Speed Gust Speed Precip Events Conditions
12:55 AM 18.1 °F - 16.3 °F 93% 30.03 in 10.0 mi Calm Calm - N/A   Clear
1:07 AM 17.6 °F - 17.6 °F 100% 30.04 in 2.5 mi Calm Calm - N/A   Clear
1:08 AM 17.6 °F - 17.6 °F 100% 30.04 in 1.8 mi Calm Calm - N/A   Clear
1:09 AM 17.6 °F - 15.8 °F 93% 30.04 in 1.2 mi Calm Calm - N/A   Clear
1:10 AM 17.6 °F - 15.8 °F 93% 30.04 in 1.0 mi Calm Calm - N/A   Clear
1:11 AM 17.6 °F - 15.8 °F 93% 30.03 in 0.8 mi Calm Calm - N/A   Clear
1:19 AM 17.6 °F 12.3 °F 15.8 °F 93% 30.04 in 1.0 mi ESE 3.5 mph - N/A   Clear
1:20 AM 17.6 °F - 15.8 °F 93% 30.04 in 1.5 mi Calm Calm - N/A   Clear
1:21 AM 17.6 °F 12.3 °F 15.8 °F 93% 30.04 in 2.0 mi ESE 3.5 mph - N/A   Clear
1:22 AM 17.6 °F 12.3 °F 15.8 °F 93% 30.04 in 4.0 mi SE 3.5 mph - N/A   Clear
1:37 AM 14.0 °F 8.2 °F 12.2 °F 93% 30.04 in 2.0 mi ESE 3.5 mph - N/A   Clear
1:38 AM 14.0 °F 8.2 °F 12.2 °F 93% 30.04 in 1.2 mi ESE 3.5 mph - N/A   Clear
1:39 AM 14.0 °F 6.5 °F 12.2 °F 93% 30.04 in 1.0 mi SE 4.6 mph - N/A   Clear
1:40 AM 14.0 °F 6.5 °F 12.2 °F 93% 30.04 in 0.8 mi SE 4.6 mph - N/A   Clear
1:46 AM 14.0 °F 6.5 °F 12.2 °F 93% 30.04 in 1.0 mi SSE 4.6 mph - N/A   Clear
1:48 AM 14.0 °F 6.5 °F 12.2 °F 93% 30.04 in 1.8 mi SSE 4.6 mph - N/A   Clear
1:49 AM 14.0 °F 6.5 °F 12.2 °F 93% 30.04 in 3.0 mi SSE 4.6 mph - N/A   Clear
1:55 AM 15.1 °F 6.4 °F 13.1 °F 92% 30.04 in 10.0 mi SSE 5.8 mph - N/A   Clear
2:55 AM 14.4 °F - 12.0 °F 90% 30.06 in 10.0 mi Calm Calm - N/A   Clear
3:06 AM 14.0 °F - 12.2 °F 93% 30.05 in 2.5 mi Calm Calm - N/A   Clear
3:07 AM 14.0 °F - 12.2 °F 93% 30.05 in 2.0 mi Calm Calm - N/A   Clear
3:11 AM 15.8 °F - 14.0 °F 93% 30.05 in 1.8 mi Calm Calm - N/A   Clear
3:15 AM 14.0 °F - 12.2 °F 93% 30.05 in 2.5 mi Calm Calm - N/A   Clear
3:16 AM 14.0 °F - 12.2 °F 93% 30.05 in 3.0 mi Calm Calm - N/A   Clear
3:55 AM 11.1 °F - 8.8 °F 90% 30.05 in 3.0 mi Calm Calm - N/A   Clear
3:56 AM 12.2 °F - 8.6 °F 85% 30.05 in 2.0 mi Calm Calm - N/A   Clear
3:57 AM 12.2 °F 6.1 °F 10.4 °F 92% 30.05 in 1.5 mi SE 3.5 mph - N/A   Clear
3:58 AM 12.2 °F 6.1 °F 10.4 °F 92% 30.05 in 1.0 mi SE 3.5 mph - N/A   Clear
4:01 AM 10.4 °F 4.0 °F 8.6 °F 92% 30.05 in 0.8 mi SE 3.5 mph - N/A   Clear
4:04 AM 10.4 °F - 8.6 °F 92% 30.05 in 0.5 mi Calm Calm - N/A Fog Light Freezing Fog
4:12 AM 10.4 °F 4.0 °F 8.6 °F 92% 30.05 in 0.2 mi SE 3.5 mph - N/A Fog Light Freezing Fog
4:23 AM 10.4 °F 4.0 °F 8.6 °F 92% 30.05 in 0.5 mi SE 3.5 mph - N/A Fog Light Freezing Fog
4:37 AM 8.6 °F - 6.8 °F 92% 30.06 in 0.8 mi Calm Calm - N/A   Clear
4:40 AM 8.6 °F - 6.8 °F 92% 30.05 in 1.0 mi Calm Calm - N/A   Clear
4:42 AM 8.6 °F - 6.8 °F 92% 30.06 in 1.2 mi Calm Calm - N/A   Clear
4:43 AM 8.6 °F - 6.8 °F 92% 30.06 in 1.8 mi Calm Calm - N/A   Clear
4:44 AM 8.6 °F - 6.8 °F 92% 30.06 in 2.5 mi Calm Calm - N/A   Clear
4:45 AM 8.6 °F - 6.8 °F 92% 30.06 in 4.0 mi Calm Calm - N/A   Clear
4:55 AM 9.3 °F - 6.4 °F 88% 30.06 in 7.0 mi Calm Calm - N/A   Clear
5:01 AM 10.4 °F - 6.8 °F 85% 30.06 in 2.5 mi Calm Calm - N/A   Clear
5:02 AM 10.4 °F - 6.8 °F 85% 30.06 in 2.0 mi Calm Calm - N/A   Clear
5:03 AM 10.4 °F - 6.8 °F 85% 30.06 in 1.8 mi Calm Calm - N/A   Clear
5:04 AM 10.4 °F - 6.8 °F 85% 30.06 in 1.5 mi Calm Calm - N/A   Clear
5:09 AM 10.4 °F - 8.6 °F 92% 30.06 in 1.8 mi Calm Calm - N/A   Clear
5:10 AM 10.4 °F - 8.6 °F 92% 30.06 in 2.0 mi Calm Calm - N/A   Clear
5:11 AM 10.4 °F - 8.6 °F 92% 30.06 in 2.5 mi Calm Calm - N/A   Clear
5:12 AM 10.4 °F - 8.6 °F 92% 30.06 in 3.0 mi Calm Calm - N/A   Clear
5:21 AM 12.2 °F - 10.4 °F 92% 30.06 in 2.5 mi Calm Calm - N/A   Clear
5:22 AM 12.2 °F - 10.4 °F 92% 30.06 in 2.0 mi Calm Calm - N/A   Clear
5:23 AM 12.2 °F - 10.4 °F 92% 30.06 in 1.2 mi Calm Calm - N/A   Clear
5:24 AM 12.2 °F - 10.4 °F 92% 30.06 in 1.0 mi Calm Calm - N/A   Clear
5:25 AM 12.2 °F - 10.4 °F 92% 30.06 in 0.8 mi Calm Calm - N/A   Clear
5:26 AM 12.2 °F - 10.4 °F 92% 30.06 in 0.5 mi Calm Calm - N/A Fog Light Freezing Fog
5:29 AM 12.2 °F - 10.4 °F 92% 30.06 in 0.2 mi Calm Calm - N/A Fog Light Freezing Fog
5:55 AM 11.8 °F - 9.1 °F 89% 30.06 in 0.2 mi Calm Calm - N/A Fog Light Freezing Fog
5:57 AM 12.2 °F - 8.6 °F 85% 30.06 in 0.5 mi Calm Calm - N/A Fog Light Freezing Fog
6:01 AM 10.4 °F - 6.8 °F 85% 30.06 in 0.8 mi Calm Calm - N/A   Clear
6:02 AM 10.4 °F - 6.8 °F 85% 30.06 in 1.0 mi Calm Calm - N/A   Clear
6:03 AM 10.4 °F - 6.8 °F 85% 30.06 in 2.0 mi Calm Calm - N/A   Clear
6:04 AM 10.4 °F 4.0 °F 6.8 °F 85% 30.06 in 3.0 mi ESE 3.5 mph - N/A   Clear
6:19 AM 8.6 °F 2.0 °F 6.8 °F 92% 30.06 in 2.5 mi East 3.5 mph - N/A   Clear
6:20 AM 8.6 °F 2.0 °F 6.8 °F 92% 30.06 in 2.0 mi East 3.5 mph - N/A   Clear
6:21 AM 8.6 °F 2.0 °F 6.8 °F 92% 30.06 in 1.8 mi East 3.5 mph - N/A   Clear
6:22 AM 8.6 °F 2.0 °F 6.8 °F 92% 30.06 in 1.5 mi East 3.5 mph - N/A   Clear
6:26 AM 10.4 °F 4.0 °F 6.8 °F 85% 30.07 in 1.8 mi ENE 3.5 mph - N/A   Clear
6:29 AM 10.4 °F - 6.8 °F 85% 30.07 in 2.0 mi Calm Calm - N/A   Clear
6:30 AM 10.4 °F - 6.8 °F 85% 30.07 in 3.0 mi Calm Calm - N/A   Clear
6:55 AM 12.2 °F 2.9 °F 8.6 °F 85% 30.07 in 10.0 mi SSE 5.8 mph - N/A   Scattered Clouds
7:18 AM 12.2 °F - 8.6 °F 85% 30.02 in 1.5 mi SE 2.3 mph - N/A   Scattered Clouds
7:55 AM 8.6 °F - 5.0 °F 85% 30.07 in 1.5 mi Calm Calm - N/A   Mostly Cloudy
8:55 AM 14.0 °F - 10.4 °F 86% 30.07 in 2.8 mi Calm Calm - N/A   Mostly Cloudy
9:55 AM 19.4 °F 12.8 °F 17.6 °F 93% 30.07 in 6.0 mi SE 4.6 mph - N/A   Scattered Clouds
10:55 AM 26.6 °F 20.0 °F 26.6 °F 100% 30.05 in 7.0 mi East 5.8 mph - N/A   Mostly Cloudy
11:55 AM 33.8 °F 26.4 °F 26.6 °F 75% 30.01 in 7.0 mi SE 9.2 mph - N/A   Mostly Cloudy
12:55 PM 37.4 °F 29.3 °F 26.6 °F 65% 29.98 in 7.0 mi SE 12.7 mph - N/A   Mostly Cloudy
1:55 PM 37.4 °F 30.3 °F 26.6 °F 65% 29.96 in 10.0 mi SE 10.4 mph - N/A   Mostly Cloudy
2:55 PM 37.4 °F 29.8 °F 26.6 °F 65% 29.95 in 10.0 mi SE 11.5 mph - N/A   Mostly Cloudy
3:55 PM 39.2 °F 31.2 °F 28.4 °F 65% 29.93 in 10.0 mi SSE 13.8 mph - N/A   Mostly Cloudy
4:55 PM 37.4 °F 28.9 °F 28.4 °F 70% 29.91 in 10.0 mi SSE 13.8 mph 21.9 mph N/A   Mostly Cloudy
5:55 PM 35.6 °F 27.5 °F 28.4 °F 75% 29.91 in 10.0 mi SSE 11.5 mph - N/A   Overcast
6:55 PM 33.8 °F 28.6 °F 28.4 °F 81% 29.93 in 10.0 mi SSE 5.8 mph - N/A   Overcast
7:55 PM 33.8 °F 26.4 °F 28.4 °F 81% 29.91 in 10.0 mi SSE 9.2 mph - N/A   Scattered Clouds
8:55 PM 35.6 °F 30.7 °F 28.4 °F 75% 29.90 in 10.0 mi South 5.8 mph - N/A   Scattered Clouds
9:55 PM 37.4 °F 30.8 °F 30.2 °F 75% 29.88 in 10.0 mi SSW 9.2 mph - N/A   Mostly Cloudy
10:55 PM 39.2 °F 30.5 °F 30.2 °F 70% 29.88 in 10.0 mi WSW 16.1 mph 24.2 mph N/A   Mostly Cloudy
11:55 PM 37.4 °F 28.2 °F 30.2 °F 75% 29.88 in 10.0 mi WSW 16.1 mph - N/A   Mostly Cloudy